Wednesday, October 01, 2014
14:23 UTC
  |  Log In   |  Register Free
Airport Search:

Smithville Municipal Airport
(0A3)

Smithville Municipal Airport Diagram
No Airport Diagram Available

FAA data valid effective September 18, 2014 - November 13, 2014 (unless otherwise noted).

 
 
 
 
 
 
 
 
 
 
 
 
 
 

Current Aviation Weather for Smithville Municipal Airport (0A3)

METAR data is unavailable for 0A3. The nearest METAR location is at KSRB (14.2 nm NE from 0A3).

The most recent METAR observation for KSRB was updated at: 1418
METAR Summary (Translated METAR)
KSRB
011355Z AUTO 00000KT 10SM CLR 18/15 A3002 RMK
(14.2 nm NE from 0A3)
KRNC
011355Z AUTO 00000KT 10SM CLR 17/17 A3002 RMK
(17.3 nm SW from 0A3)
TAF Summary (Translated TAF)
KRNC
(26.3 nm SW from KSRB)
311945Z AUTO 35008KT 10SM CLR 25/12 A3011 RMK AO1 T02500116 $
  Airport Weather Conditions for 0A3

Current weather conditions are
not available for 0A3


The nearest NOAA weather station
is at SRB, (14.2 nm NE from 0A3)
  
 Current Weather at SRB
64° F
Fair
North winds at 0.0 mph
SRB NOAA Radar

Pressure: 30.02 in
Humidity: 83%
Wind: Calm
Dew Point: 59.0°F
Visibility: 10.00 mi


Airport Weather Forecast for 0A3

Translated METAR and TAF for KSRB
Translated METAR for KSRB (1417 UTC 01 October 2014)
found at http://aviationweather.gov/adds/metars/
 
METAR text: KSRB 011415Z AUTO 00000KT 10SM CLR 19/16 A3003 RMK
Conditions at: KSRB (SPARTA , TN, US) observed 1415 UTC 01 October 2014
Temperature: 19.0°C (66°F)
Dewpoint: 16.0°C (61°F) [RH = 83%]
Pressure (altimeter): 30.03 inches Hg (1017.0 mb)
Winds: calm
Visibility: 10 or more miles (16+ km)
Ceiling: at least 12,000 feet AGL
Clouds: sky clear below 12,000 feet AGL
Weather: no significant weather observed at this time
Translated TAF for KSRB

There is no translated TAF available for this airport

Find All Airport Services Find A Hotel Find A Rental Car Find A Golf Course Find A Restaurant $100 Hamburger



FBO's on the Field
FBO Company Facility Photos Services Transportation Aviation Fuel Prices: Prices include tax
Catering Weather Repair Courtesy Rental Type 100LL JetA JetA+ MOGAS 8087
 
Smithville Municipal Airport

This FBO has not yet been rated
FS:Shell
Last Updated: Sep-19
Login to update fuel prices
SS:
Contact Smithville Municipal AirportMore FBO Information
 
Add another FBO Facility Photos Catering Weather Repair Courtesy Rental Type 100LL JetA JetA+ MOGAS 8087
Services Transportation Aviation Fuel Prices: Prices include tax


model-print
model-print
model-print
model-print